Home > Weather > Antioch > Past weeks

Flag for USA Weather for the Past 2 Weeks in Antioch, California, USA

Now
80 °F

Sunny.


Feels Like: 79 °F
Forecast: 56 / 83 °F
Wind: 16 mph from North

Location: Buchanan Field

Current Time: Apr 30, 2016 at 5:51:16 PM

Latest Report: Apr 30, 2016 at 4:53 PM


Visibility: 10 mi

Pressure: 29.77 "Hg

Humidity: 24%

Dew Point: 40 °F

Location of AntiochLocation

Historic Weather in Antioch — Graph

°F

Antioch Temperature Yesterday

Maximum temperature yesterday: 74 °F (at 12:53 PM)
Minimum temperature yesterday: 53 °F (at 3:53 AM)
Average temperature yesterday: 62 °F

High & Low Weather Summary for the Past Weeks

 TemperatureHumidityPressure
High87 °F (Apr 18, 3:53 PM)87% (Apr 22, 7:53 AM)30.07 "Hg (Apr 22, 7:53 AM)
Low47 °F (Apr 16, 6:53 AM)12% (Apr 19, 1:53 PM)29.76 "Hg (Apr 22, 5:53 AM)
Average64 °F51%29.92 "Hg
* Reported Apr 15 4:53 PM — Apr 30 4:53 PM, Antioch, Weather by CustomWeather, © 2016

Note: Actual official high and low records may vary slightly from our data, if they occured in-between our weather recording intervals... More about our weather records

Advertising

Antioch Weather History for the Previous 24 Hours

Scroll right to see more
 ConditionsComfort  
Time TempWeatherWind HumidityBarometerVisibility
4:53 PM
Sat, Apr 30
80 °FSunny.16 mph24%29.77 "Hg10 mi
3:53 PM80 °FSunny.20 mph22%29.78 "Hg10 mi
2:53 PM79 °FSunny.20 mph23%29.80 "Hg10 mi
1:53 PM78 °FSunny.22 mph23%29.81 "Hg10 mi
12:53 PM76 °FSunny.20 mph25%29.83 "Hg10 mi
11:53 AM74 °FSunny.20 mph26%29.85 "Hg10 mi
10:53 AM72 °FSunny.20 mph27%29.85 "Hg10 mi
9:53 AM70 °FSunny.15 mph29%29.87 "Hg10 mi
8:53 AM67 °FSunny.18 mph31%29.88 "Hg10 mi
7:53 AM63 °FSunny.16 mph35%29.88 "Hg10 mi
6:53 AM58 °FClear.9 mph44%29.89 "Hg10 mi
5:53 AM60 °FClear.10 mph38%29.89 "Hg10 mi
4:53 AM61 °FClear.13 mph36%29.87 "Hg10 mi
3:53 AM50 °FClear.No wind71%29.88 "Hg10 mi
2:53 AM53 °FClear.3 mph66%29.89 "Hg10 mi
1:53 AM55 °FClear.3 mph64%29.89 "Hg10 mi
12:53 AM55 °FClear.No wind64%29.89 "Hg10 mi
11:53 PM
Fri, Apr 29
59 °FClear.7 mph54%29.89 "Hg10 mi
10:53 PM59 °FPassing clouds.3 mph56%29.87 "Hg10 mi
9:53 PM60 °FClear.8 mph53%29.87 "Hg10 mi
8:53 PM62 °FSunny.20 mph52%29.85 "Hg10 mi
7:53 PM64 °FSunny.13 mph49%29.84 "Hg10 mi
6:53 PM67 °FSunny.12 mph44%29.85 "Hg10 mi
5:53 PM69 °FSunny.15 mph41%29.87 "Hg10 mi
Weather by CustomWeather, © 2016

See weather overviewHow to use our weather pages